User: anonymous   Login
Location: Caltech
(34.1382°N, 118.1253°W)
Time: 22:23:06
(UTC-07:00)
Language:

Hamsat - Orbit

View from above orbital plane
View from above orbital plane
View from above satellite
View from above satellite

Ground track
Ground track

The orbit data is extracted from the following two-line orbital elements,

1 28650U 05017B   17117.87716163 +.00000474 +00000-0 +56409-4 0  9993
2 28650 097.6470 093.9341 0022194 299.2814 060.6185 14.88634743648617
Epoch (UTC): 27 April 2017 21:03:06
Eccentricity: 0.0022194
inclination: 97.6470°
perigee height: 587 km
apogee height: 617 km
right ascension of ascending node: 93.9341°
argument of perigee: 299.2814°
revolutions per day: 14.88634743
mean anomaly at epoch: 60.6185°
orbit number at epoch: 64861

The dashed part of the orbit path shows where the satellite is in the earth's shadow,  

DLR